Regional Weather Roundup
Issued by NWS Green Bay, WI

Home | Current Version | Previous Version | Graphics & Text | Print | Product List | Glossary Off
Versions: 1 2 3 4 5 6 7 8 9 10 11 12 13 14 15 16 17 18 19 20 21 22 23 24 25 26 27 28 29 30 31 32 33 34 35 36 37 38 39 40 41 42 43 44 45 46 47 48 49 50

000
ASUS43 KGRB 032000
RWRGRB

NORTH-CENTRAL AND NORTHEAST WISCONSIN REGIONAL WEATHER ROUNDUP
NATIONAL WEATHER SERVICE GREEN BAY WI
300 PM CDT TUE MAY 03 2016

WIZ005-009-010>012-018-019-032100-
NORTH CENTRAL WISCONSIN

CITY           SKY/WX    TMP DP  RH WIND       PRES   REMARKS
IRONWOOD         N/A     46  45  93 S8        29.66F
MANITOWISH WTR NOT AVBL
ARBOR VITAE    NOT AVBL
EAGLE RIVER    NOT AVBL
LAND O LAKES   NOT AVBL
RHINELANDER    LGT RAIN  58  37  45 W23G29    29.71R
PHILLIPS       NOT AVBL
ANTIGO         NOT AVBL
TOMAHAWK       NOT AVBL
MERRILL        NOT AVBL
$$

WIZ013-073-032100-
NORTHEAST WISCONSIN

CITY           SKY/WX    TMP DP  RH WIND       PRES   REMARKS
IRON MOUNTAIN  CLOUDY    60  38  43 NW10      29.66S
MARINETTE      NOT AVBL
$$

WIZ017-030-035>037-045-032100-
CENTRAL WISCONSIN

CITY           SKY/WX    TMP DP  RH WIND       PRES   REMARKS
MEDFORD        NOT AVBL
WAUSAU         CLOUDY    68  33  27 SW16G30   29.67F
MOSINEE        MOSUNNY   66  30  26 W22G31    29.72F
MARSHFIELD     PTSUNNY   68  32  26 W21G26    29.71F
WISC RAPIDS    CLOUDY    69  28  21 W16G26    29.73F
STEVENS POINT  NOT AVBL
WAUPACA        NOT AVBL
SHAWANO        NOT AVBL
CLINTONVILLE   NOT AVBL
WAUTOMA        CLOUDY    69  32  25 SW15G28   29.74F
$$

WIZ038-039-048-051-032100-
FOX VALLEY

CITY           SKY/WX    TMP DP  RH WIND       PRES   REMARKS
NWS GREEN BAY  CLOUDY    69  36  29 W13G25    29.70F
APPLETON       PTSUNNY   68  28  22 W14G25    29.71F
OSHKOSH        CLOUDY    67  33  28 W8G21     29.73F
FOND DU LAC    CLOUDY    68  35  29 SW18G24   29.75F
$$

WIZ022-050-052-032100-
EAST CENTRAL WISCONSIN

CITY           SKY/WX    TMP DP  RH WIND       PRES   REMARKS
EPHRAIM        NOT AVBL
STURGEON BAY   CLOUDY    66  34  30 SW16      29.70F
MANITOWOC      NOT AVBL
SHEBOYGAN      CLOUDY    68  36  30 W15G23    29.75F
$$

LMZ563-521-522-541>543-032100-
LAKESHORE

STATION/POSITION TIME  TEMP    WIND        PRES    VSBY  WAVE
                       AIR SEA DIR/SP/G                  HT/PER
                 (UTC) (F)     (DEG/KT/KT) (MB)    (MI)  (FT/S)
SHEBOYGAN LKSHOR 1900   66     260/ 14/ 18 1008.4F
KEWAUNEE LKSHORE 1900   67     250/ 14/ 18 1006.0F
ALGOMA MARINA    1915          260/ 15/ 20   N/A
NORTHPORT PIER   1900   67     210/  8/ 14 1004.7F
N MID LAKE BUOY  1850   42 39  180/ 17/ 21 1005.1F         2/ 4
CHAMBERS ISLAND  1900   62     200/  5/  9 1005.1
MENOMINEE LKSHOR 1900   67     230/ 14/ 20 1003.9F
$$



USA.gov is the U.S. government's official web portal to all federal, state and local government web resources and services.